sat.trackr.live / text

‹ back to catalog

STARLINK-3611

NORAD 51779 · 2022-017M

PAYLOAD ACTIVE UNKNOWN

§ Identity

Operator
Country
US
Launch date
2022-02-25
Launch site
AFWTR
Launch vehicle
Mass (kg)
RCS (m²)

Purposes: comms

External: N2YO · Heavens-Above · Gunter

§ Orbital elements

Epoch: 2026-09-19T11:11:34.418976Z

Period
93.79 min
Inclination
53.1595°
Eccentricity
0.0001184
Mean motion
15.35394182 rev/d
Perigee alt
458.9 km
Apogee alt
460.6 km
Semi-major
6,837.9 km
B*
3.1297e-5
RAAN
176.5789°
Arg perigee
97.7422°
Mean anomaly
262.3715°
Rev number
25,199

§ Raw data

STARLINK-36111 51779U 22017M   26262.46637059  .00000711  00000+0  31297-4 0  99932 51779  53.1595 176.5789 0001184  97.7422 262.3715 15.35394182251990

JSON: /api/v1/satellites/51779 · /tle

For live sub-satellite position, see the globe view (requires WebGL).

§ Visibility from observer

Set your observer location to see the next 7 days of passes ≥ 10°. The values pass through the URL so the page stays shareable.

No JS? Fill the form by hand. The geolocation button needs JavaScript.